FW0278 Weather Reports


time (UTC)temp
F
wind
direction
speed
knots
gust
knots
rain 1hr
in
rain 24hr
in
rain mn
in
humidity
%
barometer
mb
20260504203053 77 236 0.9 5.2 0.00 0.00 0.00 50 1015.0
20260504201550 77 242 1.7 5.2 0.00 0.00 0.00 51 1015.2
20260504200047 77 255 0.0 3.5 0.00 0.00 0.00 50 1015.6
20260504194546 77 245 0.0 7.0 0.00 0.00 0.00 53 1015.8
20260504193058 77 227 0.9 7.0 0.00 0.00 0.00 53 1016.2
20260504191542 78 212 0.0 4.3 0.00 0.00 0.00 48 1016.5
20260504190044 77 241 0.0 2.6 0.00 0.00 0.00 49 1016.9
20260504184543 77 232 0.0 1.7 0.00 0.00 0.00 53 1016.7
20260504183052 77 234 0.0 3.5 0.00 0.00 0.00 51 1016.8
20260504181538 78 270 0.0 4.3 0.00 0.00 0.00 51 1017.2
20260504180056 77 250 0.9 5.2 0.00 0.00 0.00 52 1017.2
20260504174536 78 222 0.0 5.2 0.00 0.00 0.00 49 1017.4
20260504173032 77 257 0.0 3.5 0.00 0.00 0.00 51 1017.4
20260504171531 78 241 0.0 2.6 0.00 0.00 0.00 50 1017.7
20260504081522 51 276 0.0 0.0 0.00 0.00 0.00 96 1018.0
20260504050113 54 276 0.0 0.0 0.00 0.00 0.00 94 1019.4
20260504044557 54 276 0.0 0.0 0.00 0.00 0.00 94 1019.5
20260504043104 55 276 0.0 0.0 0.00 0.00 0.00 94 1019.7
20260504041559 55 276 0.0 0.0 0.00 0.00 0.00 92 1019.8
20260504040103 55 276 0.0 0.0 0.00 0.00 0.00 92 1019.8
20260504034610 55 276 0.0 0.0 0.00 0.00 0.00 92 1019.8
20260504033058 56 276 0.0 0.0 0.00 0.00 0.00 92 1019.9
20260504031602 56 276 0.0 0.0 0.00 0.00 0.00 90 1019.8
20260504030053 57 276 0.0 0.0 0.00 0.00 0.00 90 1019.7
20260504024557 58 276 0.0 0.0 0.00 0.00 0.00 89 1019.7
20260504023053 58 276 0.0 0.0 0.00 0.00 0.00 88 1019.7
20260504021556 59 276 0.0 0.0 0.00 0.00 0.00 86 1019.5
20260504014553 60 276 0.0 0.0 0.00 0.00 0.00 83 1018.9
20260504013051 61 276 0.0 0.0 0.00 0.00 0.00 80 1018.7
20260504011550 62 276 0.0 0.0 0.00 0.00 0.00 76 1018.6
20260504010049 64 276 0.0 0.0 0.00 0.00 0.00 76 1018.6
20260504004549 66 276 0.0 0.0 0.00 0.00 0.00 72 1018.5
20260504003049 68 276 0.0 0.0 0.00 0.00 0.00 69 1018.5
20260504001548 69 276 0.0 0.0 0.00 0.00 0.00 66 1018.4
20260504000051 72 276 0.0 0.0 0.00 0.00 0.00 63 1018.4
20260503234546 73 276 0.0 0.0 0.00 0.00 0.00 51 1018.5
20260503233044 73 276 0.0 0.0 0.00 0.00 0.00 49 1018.5
20260503231544 73 276 0.0 0.9 0.00 0.00 0.00 44 1018.5
20260503224542 74 275 0.0 0.9 0.00 0.00 0.00 45 1018.7
20260503223041 74 213 0.0 4.3 0.00 0.00 0.00 45 1018.9
20260503221539 75 277 0.0 2.6 0.00 0.00 0.00 42 1018.9
20260503220036 75 279 0.0 1.7 0.00 0.00 0.00 41 1019.1
20260503214541 75 279 0.9 3.5 0.00 0.00 0.00 40 1019.1
20260503213036 75 274 0.0 6.1 0.00 0.00 0.00 45 1019.2
20260503211530 74 271 0.0 2.6 0.00 0.00 0.00 43 1019.5
20260503210029 74 63 0.0 3.5 0.00 0.00 0.00 40 1019.7
20260503204530 75 263 0.0 2.6 0.00 0.00 0.00 44 1020.0